[[{"header":{"parameterUnit":"m.s-1","parameterCategory":1,"la1":30.2991,"la2":30.254,"lo1":-89.0895,"lo2":-89.0444,"dy":0.0017,"dx":0.0017,"nx":28,"ny":28,"refTime":"2025-03-26T21:00:00:Z","depth":0,"parameterNumber":2,"parameterNumberName":"U-component_of_WINDS"},"data":[0,0,0,0,0,0,0,0,0,0,0,0,0,0,0,0,0,0,0,0,0,0,0,0,0,0,0,0,0,0,0,0,0,0,0,0,0,0,0,0,0,0,0,0,0,0,0,0,0,0,0,0,0,0,0,0,0,0,-1.2097,-1.2097,0,-1.2047,-1.2046,-1.2045,-1.1994,-1.1993,-1.1992,-1.1992,-1.194,-1.1939,-1.1938,0,0,0,0,0,0,0,0,0,0,0,0,0,-1.215,-1.2149,-1.2097,-1.2097,-1.2096,-1.2047,-1.2046,-1.2045,-1.1994,-1.1993,-1.1992,-1.1991,-1.194,-1.1939,-1.1938,0,0,0,0,0,0,0,0,0,0,0,0,0,-1.2116,-1.2149,-1.2097,-1.2064,-1.2061,-1.2047,-1.2046,-1.2045,-1.1994,-1.1993,-1.1992,-1.1991,-1.194,-1.1939,-1.1938,-1.1953,0,0,-1.1935,-1.1934,0,0,0,0,0,0,0,0,-1.2118,-1.2114,-1.207,-1.2067,-1.2063,-1.2025,-1.2045,-1.2014,-1.1994,-1.2019,-1.1992,-1.199,-1.1969,-1.1966,-1.1958,-1.195,-1.1948,-1.1935,-1.1934,-1.1934,-1.1933,0,0,0,0,0,0,0,-1.212,-1.2116,-1.2077,-1.2069,-1.2065,-1.2052,-1.2046,-1.2039,-1.2001,-1.2017,-1.2013,-1.2008,-1.1967,-1.196,-1.1957,-1.1947,-1.1935,-1.1934,-1.1933,-1.1933,-1.1948,-1.1949,0,0,0,0,0,0,-1.2127,-1.2118,-1.2079,-1.2076,-1.2088,-1.2052,-1.2045,-1.2038,-1.2001,-1.1994,-1.2009,-1.2006,-1.1962,-1.1958,-1.1955,-1.1969,-1.1934,-1.1933,-1.1932,-1.1947,-1.1948,-1.1949,0,0,0,0,0,0,-1.2129,-1.2124,-1.2081,-1.2096,-1.2089,-1.2052,-1.2045,-1.2038,-1.203,-1.1995,-1.1987,-1.2008,-1.1961,-1.1956,-1.1954,-1.1967,-1.1932,-1.1931,-1.1946,-1.1947,-1.1949,-1.1998,0,0,0,0,0,0,-1.2131,-1.2125,-1.213,-1.2096,-1.2089,-1.2081,-1.2046,-1.2038,-1.2029,-1.2024,-1.1992,-1.1986,-1.196,-1.1955,-1.1953,-1.1965,-1.193,-1.1944,-1.1947,-1.1948,-1.1995,-1.2001,-1.2007,0,0,0,0,0,-1.2133,-1.2146,-1.2131,-1.2126,-1.2094,-1.2081,-1.2077,-1.2047,-1.203,-1.2035,-1.2012,-1.1987,-1.1966,-1.1956,-1.1952,-1.1964,-1.1943,-1.1946,-1.1948,-1.1993,-1.2,-1.2006,0,0,0,0,0,0,-1.2183,-1.2141,-1.2124,-1.2127,-1.2108,-1.2073,-1.2078,-1.2056,-1.2041,-1.2038,-1.2,-1.1994,-1.1995,-1.1979,-1.1969,-1.1976,-1.1951,-1.1953,-1.1986,-1.1993,-1.1998,-1.2003,-1.193,0,0,0,0,0,-1.2195,-1.2188,-1.2151,-1.2158,-1.2149,-1.2116,-1.2109,-1.2087,-1.2066,-1.2058,-1.2034,-1.2015,-1.2004,-1.1997,-1.1985,-1.1993,-1.1985,-1.1999,-1.2005,-1.2009,-1.2011,-1.2014,-1.202,-1.1957,-1.1957,-1.1957,0,0,-1.2219,-1.2195,-1.2193,-1.2167,-1.215,-1.2144,-1.2109,-1.2104,-1.2099,-1.2057,-1.2053,-1.2035,-1.2011,-1.2013,-1.2013,-1.2,-1.2027,-1.2012,-1.2016,-1.2016,-1.2017,-1.2023,-1.2028,-1.1959,-1.1959,-1.1958,0,0,-1.2259,-1.224,-1.2243,-1.2227,-1.2201,-1.2178,-1.2179,-1.2147,-1.2134,-1.2129,-1.2097,-1.2091,-1.2073,-1.2057,-1.2046,-1.208,-1.2057,-1.2077,-1.2107,-1.211,-1.2114,-1.2119,-1.2131,-1.2136,-1.2079,-1.2079,-1.2079,0,-1.2292,-1.2281,-1.2248,-1.2245,-1.2234,-1.2196,-1.2199,-1.2184,-1.2156,-1.215,-1.2136,-1.2112,-1.2093,-1.2091,-1.2099,-1.2092,-1.2092,-1.2081,-1.2116,-1.212,-1.2124,-1.2135,-1.214,-1.2082,-1.2082,-1.2081,-1.2081,0,-1.2323,-1.2316,-1.2321,-1.2295,-1.2285,-1.2285,-1.2252,-1.2246,-1.2225,-1.2204,-1.22,-1.2176,-1.2158,-1.2156,-1.2135,-1.2151,-1.2144,-1.2123,-1.2098,-1.2133,-1.2143,-1.2147,-1.2086,-1.2085,-1.2084,-1.2083,0,0,-1.2394,-1.2349,-1.2352,-1.2339,-1.2308,-1.2302,-1.23,-1.2283,-1.2278,-1.226,-1.2258,-1.2243,-1.2224,-1.2212,-1.2189,-1.2192,-1.222,-1.2171,-1.217,-1.2181,-1.2236,-1.2252,-1.2257,-1.2204,-1.2205,-1.2206,-1.2238,0,-1.2429,-1.2423,-1.2393,-1.2396,-1.239,-1.2353,-1.2351,-1.2332,-1.2312,-1.2303,-1.2281,-1.2271,-1.2247,-1.2239,-1.224,-1.2217,-1.2231,-1.2214,-1.2202,-1.2202,-1.2209,-1.2263,-1.2279,-1.2311,-1.2242,-1.2242,-1.2243,0,-1.2469,-1.2454,-1.2456,-1.2425,-1.2421,-1.242,-1.2401,-1.2393,-1.237,-1.2356,-1.2343,-1.2317,-1.2313,-1.2289,-1.2282,-1.2271,-1.2264,-1.2252,-1.2253,-1.2251,-1.2225,-1.2262,-1.232,-1.2325,-1.2249,-1.2248,-1.2248,0,-1.2521,-1.2501,-1.2499,-1.249,-1.2453,-1.2454,-1.2438,-1.2414,-1.2406,-1.2389,-1.2383,-1.2367,-1.2358,-1.2346,-1.2316,-1.2301,-1.2313,-1.2287,-1.2301,-1.2302,-1.2305,-1.2306,-1.2364,-1.2301,-1.2301,-1.2301,-1.2301,0,-1.2564,-1.2567,-1.2522,-1.2522,-1.2524,-1.2489,-1.2492,-1.2474,-1.2453,-1.2448,-1.2415,-1.2411,-1.2372,-1.2363,-1.234,-1.2338,-1.2334,-1.2322,-1.2316,-1.2325,-1.2327,-1.2321,-1.2318,-1.2302,-1.2302,-1.2301,-1.2301,0,-1.2623,-1.2593,-1.2589,-1.2555,-1.2546,-1.2549,-1.252,-1.2518,-1.2495,-1.2489,-1.2486,-1.2451,-1.244,-1.2409,-1.2389,-1.2373,-1.2378,-1.2367,-1.2386,-1.2382,-1.2398,-1.2397,-1.2454,-1.246,-1.2394,-1.2394,-1.2395,0,-1.2652,-1.2653,-1.2619,-1.2613,-1.2599,-1.2591,-1.2581,-1.2547,-1.2539,-1.2513,-1.2514,-1.25,-1.2487,-1.2469,-1.2442,-1.2427,-1.2415,-1.2436,-1.2412,-1.2422,-1.2415,-1.2416,-1.2416,-1.2441,-1.2442,-1.2443,-1.2444,0,-1.2707,-1.2692,-1.2681,-1.2664,-1.2654,-1.2639,-1.2622,-1.2619,-1.2581,-1.2573,-1.2561,-1.255,-1.253,-1.2516,-1.2496,-1.248,-1.2456,-1.2451,-1.2454,-1.2463,-1.2474,-1.2469,-1.24,-1.245,-1.2449,-1.2449,-1.2449,-1.2448,-1.2752,-1.2752,-1.2727,-1.2715,-1.2699,-1.2684,-1.268,-1.2658,-1.2647,-1.2627,-1.2608,-1.2597,-1.2574,-1.2545,-1.2531,-1.2522,-1.2509,-1.2513,-1.2514,-1.2515,-1.252,-1.2476,-1.2518,-1.2518,-1.2518,-1.2518,-1.2518,0,-1.2806,-1.2788,-1.2777,-1.2755,-1.2745,-1.2723,-1.2703,-1.2696,-1.2688,-1.2668,-1.2655,-1.2641,-1.2627,-1.2599,-1.2583,-1.2581,-1.2569,-1.2578,-1.2578,-1.2575,-1.2532,-1.2532,-1.2588,-1.2588,-1.2588,-1.2588,-1.2588,-1.2588,-1.2833,-1.2831,-1.2813,-1.2802,-1.2785,-1.2774,-1.2765,-1.2751,-1.2735,-1.272,-1.2709,-1.269,-1.2667,-1.2649,-1.2635,-1.2627,-1.2623,-1.2635,-1.2623,-1.2584,-1.2578,-1.2571,-1.2571,-1.2634,-1.2634,-1.2667,-1.2667,-1.2667]},{"header":{"parameterUnit":"m.s-1","parameterCategory":1,"la1":30.2991,"la2":30.254,"lo1":-89.0895,"lo2":-89.0444,"dy":0.0017,"dx":0.0017,"nx":28,"ny":28,"refTime":"2025-03-26T21:00:00:Z","depth":0,"parameterNumber":3,"parameterNumberName":"V-component_of_WINDS"},"data":[0,0,0,0,0,0,0,0,0,0,0,0,0,0,0,0,0,0,0,0,0,0,0,0,0,0,0,0,0,0,0,0,0,0,0,0,0,0,0,0,0,0,0,0,0,0,0,0,0,0,0,0,0,0,0,0,0,0,-0.0854,-0.0854,0,-0.0907,-0.0907,-0.0908,-0.0931,-0.093,-0.093,-0.093,-0.0988,-0.099,-0.0991,0,0,0,0,0,0,0,0,0,0,0,0,0,-0.0776,-0.0777,-0.0854,-0.0854,-0.0855,-0.0907,-0.0907,-0.0908,-0.0931,-0.093,-0.093,-0.093,-0.0988,-0.099,-0.0991,0,0,0,0,0,0,0,0,0,0,0,0,0,-0.0817,-0.0777,-0.0854,-0.0872,-0.0875,-0.0907,-0.0907,-0.0908,-0.0931,-0.093,-0.093,-0.093,-0.0987,-0.0989,-0.0992,-0.101,0,0,-0.0999,-0.1,0,0,0,0,0,0,0,0,-0.0815,-0.082,-0.0869,-0.0871,-0.0874,-0.0912,-0.0901,-0.0943,-0.0931,-0.0909,-0.093,-0.093,-0.0963,-0.0967,-0.0978,-0.1013,-0.1015,-0.0999,-0.1001,-0.1002,-0.1003,0,0,0,0,0,0,0,-0.0812,-0.0818,-0.0875,-0.087,-0.0873,-0.0879,-0.0885,-0.0909,-0.0937,-0.0911,-0.0913,-0.0919,-0.0964,-0.0975,-0.0979,-0.1016,-0.0999,-0.1002,-0.1003,-0.1004,-0.1069,-0.1069,0,0,0,0,0,0,-0.0805,-0.0815,-0.0873,-0.0876,-0.0843,-0.0881,-0.0887,-0.09,-0.0936,-0.0942,-0.0919,-0.092,-0.0971,-0.0977,-0.0982,-0.1006,-0.1002,-0.1004,-0.1006,-0.1069,-0.1069,-0.1069,0,0,0,0,0,0,-0.0804,-0.081,-0.0871,-0.0846,-0.0855,-0.0882,-0.0896,-0.0901,-0.0912,-0.0942,-0.0948,-0.0925,-0.0971,-0.0978,-0.1003,-0.1008,-0.1005,-0.1008,-0.1068,-0.1069,-0.1069,-0.1053,0,0,0,0,0,0,-0.0801,-0.081,-0.0816,-0.0846,-0.0856,-0.089,-0.0897,-0.0902,-0.0916,-0.0917,-0.0949,-0.0954,-0.0972,-0.0999,-0.1005,-0.1011,-0.101,-0.1068,-0.1069,-0.1069,-0.1054,-0.1053,-0.1053,0,0,0,0,0,-0.0798,-0.081,-0.0816,-0.0823,-0.0864,-0.089,-0.0896,-0.0915,-0.0916,-0.0923,-0.0943,-0.0953,-0.1006,-0.1001,-0.1008,-0.1015,-0.1068,-0.1068,-0.1069,-0.1054,-0.1053,-0.1053,0,0,0,0,0,0,-0.0781,-0.0814,-0.0822,-0.0843,-0.0863,-0.0894,-0.0904,-0.0914,-0.0935,-0.0936,-0.0959,-0.0966,-0.0989,-0.1005,-0.0998,-0.1035,-0.1038,-0.104,-0.1024,-0.1024,-0.1023,-0.1019,-0.1012,0,0,0,0,0,-0.0779,-0.0797,-0.0825,-0.0842,-0.0852,-0.0876,-0.0888,-0.09,-0.0923,-0.0932,-0.0953,-0.0976,-0.0998,-0.1012,-0.1033,-0.1056,-0.1064,-0.1064,-0.1064,-0.1063,-0.1065,-0.1079,-0.1079,-0.1071,-0.1071,-0.1071,0,0,-0.0777,-0.0797,-0.0807,-0.0839,-0.0856,-0.0874,-0.0883,-0.0902,-0.0916,-0.0936,-0.096,-0.0976,-0.1003,-0.1026,-0.1038,-0.104,-0.1069,-0.1064,-0.1064,-0.1066,-0.1079,-0.108,-0.1081,-0.1072,-0.1071,-0.1071,0,0,-0.0781,-0.0798,-0.0814,-0.0831,-0.0856,-0.0872,-0.0876,-0.0905,-0.0916,-0.094,-0.0955,-0.0973,-0.101,-0.1028,-0.1043,-0.1054,-0.1065,-0.1061,-0.1059,-0.1072,-0.1072,-0.1073,-0.1078,-0.1079,-0.1062,-0.1062,-0.1062,0,-0.0775,-0.0802,-0.0821,-0.0839,-0.0853,-0.087,-0.0886,-0.0902,-0.0934,-0.0944,-0.0946,-0.0992,-0.1011,-0.104,-0.1042,-0.1053,-0.1059,-0.1057,-0.1071,-0.1072,-0.1072,-0.1077,-0.1079,-0.1061,-0.1061,-0.1061,-0.1062,0,-0.0794,-0.0812,-0.0822,-0.0851,-0.0866,-0.0883,-0.0905,-0.0919,-0.093,-0.0946,-0.0971,-0.0995,-0.1021,-0.1029,-0.1041,-0.1059,-0.106,-0.1066,-0.1069,-0.1072,-0.1077,-0.1079,-0.106,-0.1061,-0.1061,-0.1061,0,0,-0.0789,-0.0827,-0.0831,-0.0844,-0.0874,-0.0889,-0.0907,-0.0932,-0.0943,-0.0965,-0.0982,-0.1012,-0.1018,-0.1034,-0.1048,-0.1059,-0.1067,-0.1064,-0.1065,-0.1064,-0.109,-0.1085,-0.1087,-0.1074,-0.1075,-0.1075,-0.1087,0,-0.0798,-0.083,-0.0847,-0.0873,-0.089,-0.0907,-0.0923,-0.0944,-0.0959,-0.0978,-0.0995,-0.1017,-0.1022,-0.1032,-0.1044,-0.1064,-0.1073,-0.1063,-0.1091,-0.1092,-0.1084,-0.1089,-0.1084,-0.1095,-0.1089,-0.109,-0.109,0,-0.0812,-0.0832,-0.0859,-0.0886,-0.0894,-0.0908,-0.0933,-0.095,-0.0974,-0.0985,-0.1002,-0.1016,-0.1037,-0.1039,-0.1069,-0.1062,-0.1074,-0.1086,-0.1087,-0.109,-0.1091,-0.1093,-0.1098,-0.11,-0.1093,-0.1093,-0.1093,0,-0.0806,-0.084,-0.086,-0.0871,-0.0904,-0.0913,-0.0928,-0.0951,-0.0965,-0.0987,-0.0996,-0.1021,-0.1034,-0.1053,-0.1074,-0.1073,-0.1102,-0.1105,-0.1112,-0.1111,-0.1118,-0.1117,-0.1125,-0.1125,-0.1125,-0.1125,-0.1125,0,-0.0814,-0.083,-0.0858,-0.0871,-0.0889,-0.0909,-0.0928,-0.0943,-0.0964,-0.0981,-0.0997,-0.1013,-0.1039,-0.1058,-0.1074,-0.1097,-0.1103,-0.1113,-0.1117,-0.1111,-0.111,-0.112,-0.112,-0.1126,-0.1125,-0.1125,-0.1125,0,-0.0811,-0.083,-0.0853,-0.0882,-0.0889,-0.0902,-0.0927,-0.0941,-0.0957,-0.0978,-0.0984,-0.101,-0.1034,-0.1055,-0.1087,-0.1098,-0.1121,-0.1126,-0.1112,-0.1115,-0.1121,-0.112,-0.1136,-0.1139,-0.1137,-0.1137,-0.1137,0,-0.0815,-0.0827,-0.0857,-0.0868,-0.0882,-0.0901,-0.0915,-0.0935,-0.095,-0.0978,-0.0988,-0.1012,-0.1033,-0.107,-0.1092,-0.1117,-0.1123,-0.1127,-0.1127,-0.1121,-0.1124,-0.1123,-0.1124,-0.1127,-0.1127,-0.1127,-0.1127,0,-0.082,-0.0828,-0.0847,-0.087,-0.0886,-0.0905,-0.0924,-0.0933,-0.0958,-0.0973,-0.0997,-0.1012,-0.1044,-0.1069,-0.1095,-0.1112,-0.1124,-0.1126,-0.1129,-0.1124,-0.1115,-0.112,-0.1112,-0.1126,-0.1126,-0.1126,-0.1126,-0.1126,-0.082,-0.0832,-0.0855,-0.0875,-0.0892,-0.091,-0.0924,-0.0941,-0.0961,-0.0988,-0.0999,-0.1023,-0.1047,-0.1084,-0.11,-0.112,-0.1123,-0.1127,-0.1128,-0.1129,-0.1128,-0.1112,-0.1125,-0.1125,-0.1125,-0.1125,-0.1125,0,-0.0826,-0.0841,-0.086,-0.0886,-0.0903,-0.0911,-0.0934,-0.0947,-0.0968,-0.0989,-0.1008,-0.1036,-0.1059,-0.1083,-0.1109,-0.112,-0.1126,-0.1126,-0.1125,-0.1129,-0.1124,-0.1119,-0.112,-0.112,-0.112,-0.112,-0.112,-0.112,-0.0831,-0.0852,-0.0863,-0.0893,-0.0908,-0.0931,-0.0943,-0.096,-0.0977,-0.1006,-0.1025,-0.104,-0.1063,-0.109,-0.1112,-0.1119,-0.1128,-0.1126,-0.1134,-0.1129,-0.1129,-0.113,-0.1125,-0.1128,-0.1128,-0.1138,-0.1138,-0.1138]}]]